Starlink 32168

operational
NORAD ID: 60335 Int'l Des: 2024-136 Owner: SPXS Country: US Constellation: starlink
LEOCIRCULAR

Über Starlink 32168

Beschreibung wird geladen...

Live-Position

3D-Globus wird geladen...

Nächste Überflüge

Höhenverlauf

Altitude vs Time

uPlot chart will show altitude changes over time

Zweizeiliger Elementsatz

1 60335U 24136G 25354.53450326 .00000898 00000-0 42451-4 0 9995
2 60335 53.1613 83.4728 0001206 72.8798 287.2335 15.30191786 77544
Epoch: 20. Dez. 2025 • Age: 11 hours

Aktueller Status

Höhe 486.5 km
Geschwindigkeit 7.62 km/s
Subsatellitenpunkt -34.46°S, 33.25°W
Startdatum 2. Aug. 2024
Alter 1.3 years
Typ internet

Technische Details

Klassifizierung Payload
Masse 730.00 kg
Trockenmasse 700.00 kg
Gesamtmasse 730.00 kg
Länge 0.30 m
Durchmesser 4.10 m
Spannweite 29.00 m
Form Box + pan
Hersteller SPXS
Bus-Typ Starlink V2M
Phasenstatus In Orbit
Besitzer/Staat SPXS/US

Große Konstellationen

Loading constellations...